Philip, SD

2:54 PM MST on December 10, 2019 (GMT -0700)
Philip

Weather History for KPHP - November, 2019

Change the Weather History Date:

Thursday, November 14, 2019

  Actual Average Record
Temperature  
Mean Temperature 38 °F 35 °F  
Max Temperature 55 °F 48 °F 75 °F (1990)
Min Temperature 21 °F 22 °F -25 °F (1959)
Degree Days  
Heating Degree Days 27 30  
Month to date heating degree days 471 378  
Since 1 July heating degree days 1353 1081  
Cooling Degree Days 0 0  
Month to date cooling degree days 0 0  
Year to date cooling degree days 669 818  
Moisture  
Dew Point 29 °F    
Average Humidity 71    
Maximum Humidity 96    
Minimum Humidity 45    
Precipitation  
Precipitation 0.00 in 0.02 in 0.38 in (1956)
Month to date precipitation 0.31 0.37  
Year to date precipitation 20.43 16.67  
Sea Level Pressure  
Sea Level Pressure 30.25 in    
Wind  
Wind Speed 5 mph (WSW)    
Max Wind Speed 14 mph    
Max Gust Speed 19 mph    
Visibility 10 miles    
Events      
T = Trace of Precipitation, MM = Missing Value Source: NWS Daily Summary

Daily Weather History Graph

Daily Weather History Graph

Search for Another Location

Airport or City:

Astronomy

Nov. 14, 2019 Rise Set
Actual Time 6:39 AM MST 4:21 PM MST
Civil Twilight 6:08 AM MST 4:52 PM MST
Nautical Twilight 5:33 AM MST 5:27 PM MST
Astronomical Twilight 4:59 AM MST 6:01 PM MST
Moon 6:05 PM MST (11/14) 8:40 AM MST (11/14)
Length of Visible Light 10h 43m
Length of Day
9h 41m
Waning Gibbous, 95% of the Moon is Illuminated
Nov 14
Waning Gibbous
Nov 19
Last Quarter
Nov 26
New
Dec 3
First Quarter
Dec 11
Full

Hourly Weather History & Observations

Time (MST) Temp. Windchill Dew Point Humidity Pressure Visibility Wind Dir Wind Speed Gust Speed Precip Events Conditions
12:55 AM 21.0 °F 14.6 °F 19.0 °F 92% 30.28 in 10.0 mi West 4.6 mph - N/A   Scattered Clouds
1:55 AM 25.0 °F - 23.0 °F 92% 30.29 in 10.0 mi Calm Calm - N/A   Overcast
2:55 AM 25.0 °F 20.7 °F 21.9 °F 88% 30.30 in 10.0 mi West 3.5 mph - N/A   Overcast
3:55 AM 28.9 °F 22.8 °F 27.0 °F 92% 30.30 in 10.0 mi West 5.8 mph - N/A   Overcast
4:07 AM 30.0 °F 25.2 °F 28.0 °F 92% 30.25 in 10.0 mi West 4.6 mph - N/A   Overcast
4:26 AM 30.0 °F 24.1 °F 28.0 °F 92% 30.24 in 10.0 mi WSW 5.8 mph - N/A   Overcast
4:55 AM 30.9 °F 24.3 °F 28.9 °F 92% 30.30 in 10.0 mi West 6.9 mph - N/A   Overcast
5:55 AM 30.9 °F 25.2 °F 28.0 °F 89% 30.30 in 10.0 mi WNW 5.8 mph - N/A   Partly Cloudy
6:55 AM 28.9 °F 23.9 °F 27.0 °F 92% 30.30 in 10.0 mi West 4.6 mph - N/A   Clear
7:55 AM 33.1 °F 26.9 °F 30.0 °F 89% 30.32 in 10.0 mi West 6.9 mph - N/A   Clear
8:55 AM 39.0 °F 33.4 °F 34.0 °F 82% 30.32 in 10.0 mi WSW 8.1 mph - N/A   Clear
9:55 AM 44.1 °F 38.6 °F 35.1 °F 71% 30.31 in 10.0 mi WSW 10.4 mph - N/A   Clear
10:55 AM 48.9 °F - 36.0 °F 61% 30.29 in 10.0 mi SW 8.1 mph - N/A   Clear
11:55 AM 52.0 °F - 35.1 °F 53% 30.26 in 10.0 mi West 10.4 mph - N/A   Clear
12:55 PM 53.1 °F - 35.1 °F 50% 30.25 in 10.0 mi West 6.9 mph - N/A   Clear
1:55 PM 54.0 °F - 33.1 °F 45% 30.22 in 10.0 mi West 5.8 mph - N/A   Clear
2:55 PM 53.1 °F - 32.0 °F 45% 30.22 in 10.0 mi West 6.9 mph - N/A   Clear
3:55 PM 50.0 °F - 32.0 °F 50% 30.21 in 10.0 mi WSW 3.5 mph - N/A   Clear
4:55 PM 39.9 °F - 30.0 °F 68% 30.22 in 10.0 mi Calm Calm - N/A   Clear
5:55 PM 36.0 °F - 28.0 °F 73% 30.23 in 10.0 mi Calm Calm - N/A   Clear
6:55 PM 37.0 °F - 28.9 °F 73% 30.22 in 10.0 mi Calm Calm - N/A   Clear
7:55 PM 34.0 °F - 27.0 °F 75% 30.22 in 10.0 mi Calm Calm - N/A   Clear
8:55 PM 30.9 °F - 27.0 °F 85% 30.21 in 10.0 mi Calm Calm - N/A   Clear
9:55 PM 33.1 °F 30.0 °F 28.0 °F 82% 30.20 in 10.0 mi East 3.5 mph - N/A   Clear
10:55 PM 28.9 °F 22.8 °F 25.0 °F 85% 30.19 in 10.0 mi East 5.8 mph - N/A   Clear
11:55 PM 30.0 °F 26.5 °F 27.0 °F 88% 30.17 in 10.0 mi ESE 3.5 mph - N/A   Clear